Location: Les Jeannots
(43.2262°N, 5.5774°E)
Time: 19:13:36
(UTC+00:00)

Cosmos 1825 Rocket - Pass Details

Date: 05 July 2020
Orbit: 603 x 631 km, 82.5° (Epoch: 12 August)

Event Time Altitude Azimuth Distance (km) Brightness Sun altitude
Exits shadow 20:10:13 - 160° (SSE) 2,254 5.9 -8.0°
Reaches altitude 10° 20:10:55 10° 157° (SSE) 1,993 5.6 -8.1°
Maximum altitude 20:14:57 36° 91° (E) 998 4.3 -8.7°
Drops below altitude 10° 20:19:03 10° 25° (NNE) 2,018 6.4 -9.2°
Sets 20:21:25 0° 17° (NNE) 2,933 7.4 -9.5°
